This is the latest recevied weather packets stored in our database for station/object EA1IOK-13. If no packets are shown the sender has not sent any weather packets the latest 1 day(s).
| Time | Temp. | Humidity | Pressure | Rain* | Wind** | Luminosity | Snow |
|---|---|---|---|---|---|---|---|
| 1778051150 | 8.33° C | 96% | 1015.4 hPa | 0 mm | 0.45 m/s, 30° | - | - |
| 1778049579 | 8.33° C | 97% | 1015.3 hPa | 0 mm | 0.89 m/s, 35° | - | - |
| 1778049350 | 8.33° C | 97% | 1015.3 hPa | 0 mm | 0.89 m/s, 35° | - | - |
| 1778047548 | 7.22° C | 98% | 1015.2 hPa | 0 mm | 1.34 m/s, 348° | - | - |
| 1778045978 | 6.67° C | 97% | 1015.1 hPa | 0 mm | 2.24 m/s, 357° | - | - |
| 1778045750 | 6.67° C | 97% | 1015.1 hPa | 0 mm | 2.24 m/s, 357° | - | - |
| 1778043949 | 6.67° C | 98% | 1014.9 hPa | 0 mm | 0.89 m/s, 4° | - | - |
| 1778043049 | 6.67° C | 97% | 1015.1 hPa | 0 mm | 2.24 m/s, 347° | - | - |
| 1778042373 | 6.67° C | 97% | 1015 hPa | 0 mm | 0.89 m/s, 35° | - | - |
| 1778042149 | 6.67° C | 97% | 1015 hPa | 0 mm | 0.89 m/s, 35° | - | - |
| 1778040349 | 7.78° C | 98% | 1015 hPa | 0 mm | 0.45 m/s, 352° | - | - |
| 1778038610 | 5.56° C | 97% | 1015.1 hPa | 0 mm | 0.89 m/s, 0° | - | - |
| 1778038548 | 5.56° C | 97% | 1015.1 hPa | 0 mm | 0.89 m/s, 0° | - | - |
| 1778036749 | 6.67° C | 96% | 1015.3 hPa | 0 mm | 2.24 m/s, 69° | - | - |
| 1778035178 | 6.67° C | 96% | 1015.3 hPa | 0 mm | 2.24 m/s, 16° | - | - |
| 1778034949 | 6.67° C | 96% | 1015.3 hPa | 0 mm | 2.24 m/s, 16° | - | - |
| 1778033221 | 6.67° C | 96% | 1015.5 hPa | 0 mm | 1.34 m/s, 355° | - | - |
| 1778033150 | 6.67° C | 96% | 1015.5 hPa | 0 mm | 1.34 m/s, 355° | - | - |
| 1778031581 | 6.67° C | 94% | 1015.8 hPa | 0 mm | 0.89 m/s, 327° | - | - |
| 1778031352 | 6.67° C | 94% | 1015.8 hPa | 0 mm | 0.89 m/s, 327° | - | - |
| 1778027977 | 8.33° C | 94% | 1016.1 hPa | 0 mm | 0.89 m/s, 5° | - | - |
| 1778027749 | 8.33° C | 94% | 1016.1 hPa | 0 mm | 0.89 m/s, 5° | - | - |
| 1778025949 | 8.89° C | 94% | 1016.2 hPa | 0 mm | 0.89 m/s, 20° | - | - |
| 1778024316 | 8.89° C | 94% | 1016.3 hPa | 0 mm | 1.34 m/s, 4° | - | - |
| 1778024149 | 8.89° C | 94% | 1016.3 hPa | 0 mm | 1.34 m/s, 4° | - | - |
* Rain latest hour (hover to see other rain measurements)
** Current wind speed in m/s (hover to see current wind gust speed)